Weather History for Austin, MN

Change the Weather History Date:

Sunday, April 14, 2013

  Actual Average Record
Temperature  
Mean Temperature 40 °F -  
Max Temperature 48 °F 53 °F 89 °F (2003)
Min Temperature 33 °F 34 °F 26 °F (2007)
Degree Days  
Heating Degree Days 24    
Moisture  
Dew Point 33 °F    
Average Humidity 84    
Maximum Humidity 93    
Minimum Humidity 71    
Precipitation  
Precipitation 0.74 in - - ()
Sea Level Pressure  
Sea Level Pressure 29.64 in    
Wind  
Wind Speed 13 mph (ESE)    
Max Wind Speed 24 mph    
Max Gust Speed 32 mph    
Visibility 8 miles    
Events Rain , Snow , Thunderstorm    
Averages and records for this station are not official NWS values.
T = Trace of Precipitation, MM = Missing Value Source: NWS Daily Summary

Daily Weather History Graph

Daily Weather History Graph

Search for Another Location

Airport:

Trip Planner

Search our weather history database for the weather conditions in past years. The results will help you decide how hot, cold, wet, or windy it might be!

Date:

Astronomy

Apr. 14, 2013 Rise Set
Actual Time 6:30 AM CDT 7:54 PM CDT
Civil Twilight 6:00 AM CDT 8:24 PM CDT
Nautical Twilight 5:24 AM CDT 9:00 PM CDT
Astronomical Twilight 4:46 AM CDT 9:38 PM CDT
Moon 9:01 AM CDT (4/14) No Moon Set
Length of Visible Light 14h 23m
Length of Day
13h 24m
Waxing Crescent, 17% of the Moon is Illuminated
Apr 14
Waxing Crescent
Apr 18
First Quarter
Apr 25
Full
May 2
Last Quarter
May 9
New

Hourly Weather History & Observations

Time (CDT) Temp. Windchill Dew Point Humidity Pressure Visibility Wind Dir Wind Speed Gust Speed Precip Events Conditions
12:15 AM 33.8 °F 24.8 °F 26.6 °F 75% 29.90 in 10.0 mi East 12.7 mph - N/A   Overcast
12:36 AM 33.8 °F 24.8 °F 26.6 °F 75% 29.89 in 10.0 mi East 12.7 mph 17.3 mph N/A   Overcast
12:55 AM 33.8 °F 24.8 °F 26.6 °F 75% 29.89 in 10.0 mi East 12.7 mph - N/A   Overcast
1:16 AM 33.8 °F 25.8 °F 26.6 °F 75% 29.88 in 10.0 mi East 10.4 mph 16.1 mph N/A   Overcast
1:35 AM 33.8 °F 23.9 °F 26.6 °F 75% 29.87 in 10.0 mi East 15.0 mph - N/A   Overcast
1:55 AM 33.8 °F 24.8 °F 26.6 °F 75% 29.86 in 10.0 mi East 12.7 mph - N/A   Overcast
2:16 AM 33.8 °F 24.8 °F 26.6 °F 75% 29.85 in 10.0 mi East 12.7 mph - N/A   Overcast
2:35 AM 33.8 °F 24.8 °F 26.6 °F 75% 29.85 in 10.0 mi East 12.7 mph - N/A   Overcast
2:56 AM 33.8 °F 24.3 °F 26.6 °F 75% 29.85 in 10.0 mi East 13.8 mph - N/A   Overcast
3:15 AM 33.8 °F 25.3 °F 26.6 °F 75% 29.86 in 10.0 mi ESE 11.5 mph - N/A   Overcast
3:36 AM 33.8 °F 24.8 °F 26.6 °F 75% 29.85 in 10.0 mi ESE 12.7 mph - N/A   Overcast
3:55 AM 33.8 °F 23.9 °F 26.6 °F 75% 29.84 in 10.0 mi ESE 15.0 mph 18.4 mph N/A   Overcast
4:15 AM 33.8 °F 23.2 °F 26.6 °F 75% 29.82 in 7.0 mi ESE 17.3 mph - N/A Snow Light Snow
4:35 AM 33.8 °F 23.5 °F 28.4 °F 81% 29.83 in 7.0 mi ESE 16.1 mph 21.9 mph N/A   Overcast
4:55 AM 33.8 °F 25.3 °F 28.4 °F 81% 29.84 in 5.0 mi ESE 11.5 mph - 0.03 in   Overcast
5:16 AM 33.8 °F 23.9 °F 28.4 °F 81% 29.82 in 5.0 mi ESE 15.0 mph - 0.01 in   Overcast
5:35 AM 33.8 °F 24.3 °F 28.4 °F 81% 29.79 in 5.0 mi East 13.8 mph 19.6 mph 0.03 in   Overcast
5:55 AM 33.8 °F 24.3 °F 30.2 °F 87% 29.77 in 7.0 mi East 13.8 mph - 0.04 in   Overcast
6:16 AM 33.8 °F 24.8 °F 30.2 °F 87% 29.76 in 7.0 mi East 12.7 mph - N/A   Overcast
6:35 AM 33.8 °F 23.9 °F 30.2 °F 87% 29.75 in 10.0 mi East 15.0 mph - N/A   Overcast
7:16 AM 33.8 °F 25.8 °F 30.2 °F 87% 29.75 in 4.0 mi East 10.4 mph - 0.03 in   Overcast
7:35 AM 33.8 °F 25.3 °F 30.2 °F 87% 29.74 in 4.0 mi East 11.5 mph - 0.07 in   Overcast
7:55 AM 33.8 °F 27.0 °F 30.2 °F 87% 29.75 in 3.0 mi East 8.1 mph - 0.14 in   Overcast
8:16 AM 33.8 °F 26.4 °F 30.2 °F 87% 29.74 in 3.0 mi East 9.2 mph - 0.08 in   Overcast
8:35 AM 33.8 °F 26.4 °F 30.2 °F 87% 29.72 in 3.0 mi East 9.2 mph - 0.13 in   Overcast
8:55 AM 33.8 °F 25.3 °F 30.2 °F 87% 29.69 in 5.0 mi East 11.5 mph - 0.15 in   Overcast
9:16 AM 33.8 °F 25.3 °F 30.2 °F 87% 29.67 in 10.0 mi East 11.5 mph 16.1 mph N/A   Overcast
9:35 AM 33.8 °F 26.4 °F 30.2 °F 87% 29.68 in 10.0 mi East 9.2 mph - N/A   Overcast
9:55 AM 33.8 °F 25.8 °F 30.2 °F 87% 29.67 in 10.0 mi East 10.4 mph - N/A   Overcast
10:16 AM 33.8 °F 25.3 °F 30.2 °F 87% 29.65 in 10.0 mi East 11.5 mph - N/A Snow Light Snow
10:35 AM 33.8 °F 25.3 °F 30.2 °F 87% 29.65 in 7.0 mi East 11.5 mph - N/A Snow Light Snow
10:55 AM 33.8 °F 24.8 °F 30.2 °F 87% 29.65 in 7.0 mi ESE 12.7 mph - N/A Snow Light Snow
11:16 AM 33.8 °F 25.3 °F 32.0 °F 93% 29.65 in 7.0 mi ESE 11.5 mph - N/A Snow Light Snow
11:35 AM 35.6 °F 27.1 °F 32.0 °F 87% 29.63 in 4.0 mi ESE 12.7 mph - N/A Snow Light Snow
11:55 AM 35.6 °F 27.5 °F 32.0 °F 87% 29.62 in 7.0 mi ESE 11.5 mph - N/A Snow Light Snow
12:16 PM 35.6 °F 26.6 °F 32.0 °F 87% 29.61 in 5.0 mi ESE 13.8 mph 18.4 mph N/A Snow Light Snow
12:35 PM 35.6 °F 24.2 °F 33.8 °F 93% 29.59 in 7.0 mi ESE 21.9 mph 28.8 mph N/A Snow Light Snow
12:55 PM 35.6 °F 24.5 °F 33.8 °F 93% 29.58 in 10.0 mi ESE 20.7 mph 29.9 mph N/A   Overcast
1:16 PM 37.4 °F 26.4 °F 33.8 °F 87% 29.57 in 10.0 mi ESE 23.0 mph 28.8 mph N/A   Overcast
1:35 PM 37.4 °F 26.6 °F 33.8 °F 87% 29.55 in 10.0 mi ESE 21.9 mph 31.1 mph N/A   Overcast
1:55 PM 37.4 °F 26.4 °F 35.6 °F 93% 29.54 in 10.0 mi ESE 23.0 mph 32.2 mph N/A   Overcast
2:16 PM 39.2 °F 28.5 °F 35.6 °F 87% 29.53 in 10.0 mi ESE 24.2 mph 31.1 mph N/A   Overcast
2:35 PM 39.2 °F 28.7 °F 35.6 °F 87% 29.52 in 7.0 mi ESE 23.0 mph 29.9 mph N/A   Overcast
3:15 PM 39.2 °F 29.3 °F 35.6 °F 87% 29.50 in 10.0 mi ESE 20.7 mph 27.6 mph N/A   Unknown
3:35 PM 39.2 °F 30.2 °F 35.6 °F 87% 29.50 in 7.0 mi ESE 17.3 mph 31.1 mph N/A   Unknown
3:55 PM 39.2 °F 29.3 °F 35.6 °F 87% 29.49 in 3.0 mi ESE 20.7 mph 28.8 mph N/A Rain Rain
4:15 PM 39.2 °F 28.7 °F 35.6 °F 87% 29.47 in 1.5 mi ESE 23.0 mph 27.6 mph 0.09 in   Overcast
4:35 PM 39.2 °F 29.6 °F 35.6 °F 87% 29.46 in 2.5 mi ESE 19.6 mph 28.8 mph 0.11 in   Overcast
4:56 PM 39.2 °F 29.6 °F 35.6 °F 87% 29.45 in 3.0 mi ESE 19.6 mph 29.9 mph N/A   Overcast
5:15 PM 39.2 °F 29.3 °F 37.4 °F 93% 29.45 in 1.8 mi ESE 20.7 mph 28.8 mph N/A   Overcast
5:35 PM 39.2 °F 29.0 °F 37.4 °F 93% 29.43 in 4.0 mi East 21.9 mph 28.8 mph N/A   Overcast
5:56 PM 39.2 °F 29.0 °F 37.4 °F 93% 29.43 in 4.0 mi East 21.9 mph 27.6 mph N/A   Light Drizzle
6:15 PM 41.0 °F 34.7 °F 37.4 °F 87% 29.49 in 4.0 mi West 10.4 mph 17.3 mph 0.03 in Rain , Thunderstorm Heavy Thunderstorms and Rain
6:36 PM 41.0 °F 33.5 °F 37.4 °F 87% 29.46 in 4.0 mi ESE 13.8 mph - 0.13 in Rain Rain
6:55 PM 42.8 °F 35.4 °F 39.2 °F 87% 29.45 in 4.0 mi ESE 15.0 mph - 0.22 in Rain Rain
7:15 PM 44.6 °F 38.4 °F 42.8 °F 93% 29.44 in 7.0 mi ESE 12.7 mph - 0.02 in Rain Light Rain
7:36 PM 44.6 °F 38.4 °F 41.0 °F 87% 29.46 in 7.0 mi ESE 12.7 mph - 0.03 in Rain Rain
7:55 PM 44.6 °F 38.4 °F 41.0 °F 87% 29.45 in 10.0 mi ESE 12.7 mph - 0.05 in Rain Light Rain
8:15 PM 44.6 °F 41.4 °F 41.0 °F 87% 29.48 in 10.0 mi SSE 5.8 mph 12.7 mph N/A   Overcast
8:36 PM 46.4 °F 41.5 °F 44.6 °F 93% 29.50 in 10.0 mi SSW 10.4 mph - N/A   Overcast
8:55 PM 48.2 °F - 44.6 °F 87% 29.52 in 10.0 mi West 13.8 mph 17.3 mph N/A   Overcast
9:15 PM 48.2 °F - 44.6 °F 87% 29.55 in 10.0 mi West 5.8 mph 16.1 mph N/A   Overcast
9:36 PM 46.4 °F 41.1 °F 39.2 °F 76% 29.56 in 10.0 mi West 11.5 mph - N/A   Overcast
9:55 PM 46.4 °F 42.9 °F 37.4 °F 71% 29.57 in 10.0 mi West 6.9 mph - N/A   Overcast
10:15 PM 44.6 °F 43.1 °F 37.4 °F 76% 29.56 in 10.0 mi West 3.5 mph - N/A   Overcast
10:36 PM 44.6 °F 41.4 °F 37.4 °F 76% 29.58 in 10.0 mi WSW 5.8 mph - N/A   Overcast
10:55 PM 44.6 °F - 37.4 °F 76% 29.58 in 10.0 mi Calm Calm - N/A   Scattered Clouds
11:15 PM 42.8 °F - 37.4 °F 81% 29.59 in 10.0 mi Calm Calm - N/A   Mostly Cloudy
11:36 PM 42.8 °F 41.1 °F 35.6 °F 76% 29.60 in 10.0 mi SW 3.5 mph - N/A   Scattered Clouds
11:55 PM 42.8 °F 37.0 °F 35.6 °F 76% 29.60 in 10.0 mi WSW 10.4 mph - N/A   Scattered Clouds